Time,TemperatureF,DewpointF,PressureIn,WindDirection,WindDirectionDegrees,WindSpeedMPH,WindSpeedGustMPH,Humidity,HourlyPrecipIn,Conditions,Clouds,dailyrainin,SoftwareType,DateUTC
2013-04-08 00:03:00,52.5,44.1,29.83,SSE,157,0.0,0.6,73,0.00,,,0.00,WUHU21636XXSP,2013-04-08 05:03:00,
2013-04-08 00:13:00,52.2,44.1,29.84,SSE,157,0.0,0.0,74,0.00,,,0.00,WUHU21636XXSP,2013-04-08 05:13:00,
2013-04-08 00:23:00,52.0,44.2,29.84,SSW,202,0.0,3.1,75,0.00,,,0.00,WUHU21636XXSP,2013-04-08 05:23:00,
2013-04-08 00:33:00,51.6,43.9,29.83,SSW,202,0.0,0.0,75,0.00,,,0.00,WUHU21636XXSP,2013-04-08 05:33:00,
2013-04-08 00:43:00,51.4,44.1,29.83,SSW,202,0.0,1.3,76,0.00,,,0.00,WUHU21636XXSP,2013-04-08 05:43:00,
2013-04-08 00:53:00,51.4,44.1,29.84,SSW,202,0.0,0.0,76,0.00,,,0.00,WUHU21636XXSP,2013-04-08 05:53:00,
2013-04-08 01:03:00,51.1,43.7,29.84,South,180,0.0,0.0,76,0.00,,,0.00,WUHU21636XXSP,2013-04-08 06:03:00,
2013-04-08 01:13:00,50.9,43.5,29.84,South,180,0.0,2.4,76,0.00,,,0.00,WUHU21636XXSP,2013-04-08 06:13:00,
2013-04-08 01:23:00,50.9,43.5,29.83,South,180,0.0,0.0,76,0.00,,,0.00,WUHU21636XXSP,2013-04-08 06:23:00,
2013-04-08 01:33:00,50.7,43.7,29.83,South,180,0.0,0.0,77,0.00,,,0.00,WUHU21636XXSP,2013-04-08 06:33:00,
2013-04-08 01:43:00,50.5,43.5,29.83,South,180,0.0,0.0,77,0.00,,,0.00,WUHU21636XXSP,2013-04-08 06:43:00,
2013-04-08 01:53:00,50.5,43.5,29.84,South,180,0.0,0.0,77,0.00,,,0.00,WUHU21636XXSP,2013-04-08 06:53:00,
2013-04-08 02:03:00,50.2,43.5,29.85,South,180,0.0,0.0,78,0.00,,,0.00,WUHU21636XXSP,2013-04-08 07:03:00,
2013-04-08 02:13:00,49.6,43.0,29.84,South,180,0.0,0.0,78,0.00,,,0.00,WUHU21636XXSP,2013-04-08 07:13:00,
2013-04-08 02:23:00,49.8,43.2,29.83,South,180,0.0,0.0,78,0.00,,,0.00,WUHU21636XXSP,2013-04-08 07:23:00,
2013-04-08 02:33:00,49.8,43.2,29.84,South,180,0.0,0.0,78,0.00,,,0.00,WUHU21636XXSP,2013-04-08 07:33:00,
2013-04-08 02:43:00,49.6,43.0,29.83,South,180,0.0,0.0,78,0.00,,,0.00,WUHU21636XXSP,2013-04-08 07:43:00,
2013-04-08 02:53:00,49.6,43.0,29.83,South,180,0.0,0.0,78,0.00,,,0.00,WUHU21636XXSP,2013-04-08 07:53:00,
2013-04-08 03:03:00,49.5,42.4,29.84,South,180,0.0,0.0,77,0.00,,,0.00,WUHU21636XXSP,2013-04-08 08:03:00,
2013-04-08 03:13:00,49.1,42.1,29.83,South,180,0.0,0.0,77,0.00,,,0.00,WUHU21636XXSP,2013-04-08 08:13:00,
2013-04-08 03:23:00,48.6,41.5,29.83,South,180,0.0,0.0,77,0.00,,,0.00,WUHU21636XXSP,2013-04-08 08:23:00,
2013-04-08 03:33:00,48.0,40.6,29.83,South,180,0.0,0.0,76,0.00,,,0.00,WUHU21636XXSP,2013-04-08 08:33:00,
2013-04-08 03:43:00,48.0,40.6,29.83,South,180,0.0,0.0,76,0.00,,,0.00,WUHU21636XXSP,2013-04-08 08:43:00,
2013-04-08 03:53:00,47.8,40.5,29.83,South,180,0.0,0.0,76,0.00,,,0.00,WUHU21636XXSP,2013-04-08 08:53:00,
2013-04-08 04:03:00,47.1,40.1,29.83,South,180,0.0,0.0,77,0.00,,,0.00,WUHU21636XXSP,2013-04-08 09:03:00,
2013-04-08 04:13:00,47.5,40.5,29.83,South,180,0.0,0.0,77,0.00,,,0.00,WUHU21636XXSP,2013-04-08 09:13:00,
2013-04-08 04:23:00,47.3,39.9,29.84,South,180,0.0,0.0,76,0.00,,,0.00,WUHU21636XXSP,2013-04-08 09:23:00,
2013-04-08 04:33:00,45.7,39.6,29.83,NNW,337,0.0,0.0,79,0.00,,,0.00,WUHU21636XXSP,2013-04-08 09:33:00,
2013-04-08 04:43:00,46.0,40.3,29.81,NNW,337,0.0,0.0,80,0.00,,,0.00,WUHU21636XXSP,2013-04-08 09:43:00,
2013-04-08 04:53:00,46.0,40.3,29.82,NNW,337,0.0,0.0,80,0.00,,,0.00,WUHU21636XXSP,2013-04-08 09:53:00,
2013-04-08 05:03:00,46.2,40.1,29.82,NNW,337,0.0,0.0,79,0.00,,,0.00,WUHU21636XXSP,2013-04-08 10:03:00,
2013-04-08 05:13:00,46.0,40.3,29.81,NNW,337,0.0,0.0,80,0.00,,,0.00,WUHU21636XXSP,2013-04-08 10:13:00,
2013-04-08 05:23:00,46.0,40.3,29.81,NNW,337,0.0,0.0,79,0.00,,,0.00,WUHU21636XXSP,2013-04-08 10:23:00,
2013-04-08 05:33:00,45.7,39.6,29.82,NNW,337,0.0,0.0,79,0.00,,,0.00,WUHU21636XXSP,2013-04-08 10:33:00,
2013-04-08 05:43:00,45.7,39.6,29.82,NNW,337,0.0,0.0,78,0.00,,,0.00,WUHU21636XXSP,2013-04-08 10:43:00,
2013-04-08 05:53:00,45.3,38.8,29.81,NNW,337,0.0,0.0,78,0.00,,,0.00,WUHU21636XXSP,2013-04-08 10:53:00,
2013-04-08 06:03:00,45.0,38.5,29.81,NNW,337,0.0,0.0,78,0.00,,,0.00,WUHU21636XXSP,2013-04-08 11:03:00,
2013-04-08 06:13:00,44.4,37.6,29.81,NNW,337,0.0,0.0,77,0.00,,,0.00,WUHU21636XXSP,2013-04-08 11:13:00,
2013-04-08 06:23:00,43.5,36.7,29.81,NNW,337,0.0,0.0,76,0.00,,,0.00,WUHU21636XXSP,2013-04-08 11:23:00,
2013-04-08 06:33:00,43.2,36.0,29.80,NNW,337,0.0,0.0,76,0.00,,,0.00,WUHU21636XXSP,2013-04-08 11:33:00,
2013-04-08 06:43:00,42.4,35.2,29.81,NNW,337,0.0,0.0,76,0.00,,,0.00,WUHU21636XXSP,2013-04-08 11:43:00,
2013-04-08 06:53:00,41.7,35.6,29.81,NNW,337,0.0,0.0,79,0.00,,,0.00,WUHU21636XXSP,2013-04-08 11:53:00,
2013-04-08 07:03:00,41.7,35.6,29.81,NNW,337,0.0,0.0,79,0.00,,,0.00,WUHU21636XXSP,2013-04-08 12:03:00,
2013-04-08 07:13:00,41.2,35.6,29.81,NNW,337,0.0,0.0,81,0.00,,,0.00,WUHU21636XXSP,2013-04-08 12:13:00,
2013-04-08 07:23:00,41.2,35.6,29.82,NNW,337,0.0,0.0,82,0.00,,,0.00,WUHU21636XXSP,2013-04-08 12:23:00,
2013-04-08 07:33:00,40.8,35.6,29.82,NNW,337,0.0,0.0,82,0.00,,,0.00,WUHU21636XXSP,2013-04-08 12:33:00,
2013-04-08 07:43:00,40.6,35.4,29.82,NNW,337,0.0,0.8,82,0.00,,,0.00,WUHU21636XXSP,2013-04-08 12:43:00,
2013-04-08 07:53:00,40.8,35.6,29.82,NNW,337,0.0,0.0,82,0.00,,,0.00,WUHU21636XXSP,2013-04-08 12:53:00,
2013-04-08 08:04:00,41.2,36.0,29.82,NNW,337,0.0,0.0,82,0.00,,,0.00,WUHU21636XXSP,2013-04-08 13:04:00,
2013-04-08 08:14:00,40.8,36.0,29.82,NNW,337,0.0,0.0,83,0.00,,,0.00,WUHU21636XXSP,2013-04-08 13:14:00,
2013-04-08 08:24:00,40.8,36.0,29.83,NNW,337,0.0,0.0,84,0.00,,,0.00,WUHU21636XXSP,2013-04-08 13:24:00,
2013-04-08 08:34:00,40.8,36.0,29.83,NNW,337,0.0,0.0,84,0.00,,,0.00,WUHU21636XXSP,2013-04-08 13:34:00,
2013-04-08 08:44:00,41.2,37.2,29.84,NNW,337,0.0,0.0,86,0.00,,,0.00,WUHU21636XXSP,2013-04-08 13:44:00,
2013-04-08 08:54:00,41.2,37.2,29.84,NNW,337,0.0,0.0,87,0.00,,,0.00,WUHU21636XXSP,2013-04-08 13:54:00,
2013-04-08 09:04:00,41.5,38.1,29.84,West,270,0.0,0.0,88,0.00,,,0.00,WUHU21636XXSP,2013-04-08 14:04:00,
2013-04-08 09:14:00,41.7,38.3,29.83,West,270,0.0,0.0,89,0.00,,,0.00,WUHU21636XXSP,2013-04-08 14:14:00,
2013-04-08 09:24:00,42.4,39.4,29.84,West,270,0.0,0.0,89,0.00,,,0.00,WUHU21636XXSP,2013-04-08 14:24:00,
2013-04-08 09:34:00,43.2,40.1,29.83,West,270,0.0,0.0,89,0.00,,,0.00,WUHU21636XXSP,2013-04-08 14:34:00,
2013-04-08 09:44:00,44.2,41.2,29.83,West,270,0.0,0.0,89,0.00,,,0.00,WUHU21636XXSP,2013-04-08 14:44:00,
2013-04-08 09:54:00,45.3,42.6,29.83,West,270,0.0,0.0,90,0.00,,,0.00,WUHU21636XXSP,2013-04-08 14:54:00,
2013-04-08 10:04:00,46.0,43.3,29.83,West,270,0.0,0.0,90,0.00,,,0.00,WUHU21636XXSP,2013-04-08 15:04:00,
2013-04-08 10:15:00,46.9,44.2,29.83,West,270,0.0,0.0,90,0.00,,,0.00,WUHU21636XXSP,2013-04-08 15:15:00,
2013-04-08 10:25:00,48.0,45.0,29.83,SSW,202,0.0,0.0,89,0.00,,,0.00,WUHU21636XXSP,2013-04-08 15:25:00,
2013-04-08 10:35:00,49.1,45.9,29.83,SE,135,0.0,1.5,89,0.00,,,0.00,WUHU21636XXSP,2013-04-08 15:35:00,
2013-04-08 10:45:00,50.4,46.4,29.83,SE,135,0.0,4.6,87,0.00,,,0.00,WUHU21636XXSP,2013-04-08 15:45:00,
2013-04-08 10:55:00,51.8,46.9,29.82,SE,135,2.2,8.5,84,0.00,,,0.00,WUHU21636XXSP,2013-04-08 15:55:00,
2013-04-08 11:05:00,53.4,48.0,29.82,ESE,112,1.3,6.7,82,0.00,,,0.00,WUHU21636XXSP,2013-04-08 16:05:00,
2013-04-08 11:15:00,55.0,49.8,29.83,SE,135,4.6,8.0,83,0.00,,,0.00,WUHU21636XXSP,2013-04-08 16:15:00,
2013-04-08 11:25:00,56.5,50.0,29.82,ESE,112,5.5,9.3,79,0.00,,,0.00,WUHU21636XXSP,2013-04-08 16:25:00,
2013-04-08 11:35:00,57.4,50.5,29.82,East,90,0.6,11.4,78,0.00,,,0.00,WUHU21636XXSP,2013-04-08 16:35:00,
2013-04-08 11:45:00,58.3,51.1,29.81,East,90,4.0,10.5,77,0.00,,,0.00,WUHU21636XXSP,2013-04-08 16:45:00,
2013-04-08 11:55:00,59.0,50.7,29.82,ESE,112,5.1,11.8,74,0.00,,,0.00,WUHU21636XXSP,2013-04-08 16:55:00,
2013-04-08 12:05:00,60.1,51.4,29.81,SE,135,4.6,10.5,73,0.00,,,0.00,WUHU21636XXSP,2013-04-08 17:05:00,
2013-04-08 12:15:00,61.2,51.6,29.81,SE,135,1.5,12.3,71,0.00,,,0.00,WUHU21636XXSP,2013-04-08 17:15:00,
2013-04-08 12:25:00,62.1,50.5,29.81,East,90,5.1,13.8,66,0.00,,,0.00,WUHU21636XXSP,2013-04-08 17:25:00,
2013-04-08 12:35:00,62.8,51.6,29.82,SE,135,7.6,14.0,67,0.00,,,0.00,WUHU21636XXSP,2013-04-08 17:35:00,
2013-04-08 12:45:00,64.0,51.4,29.81,SE,135,7.1,15.4,64,0.00,,,0.00,WUHU21636XXSP,2013-04-08 17:45:00,
2013-04-08 12:55:00,64.8,51.8,29.81,SSE,157,8.5,15.4,63,0.00,,,0.00,WUHU21636XXSP,2013-04-08 17:55:00,
2013-04-08 13:05:00,65.8,51.6,29.80,ESE,112,12.3,17.2,60,0.00,,,0.00,WUHU21636XXSP,2013-04-08 18:05:00,
2013-04-08 13:15:00,67.1,52.2,29.80,ESE,112,8.0,19.0,59,0.00,,,0.00,WUHU21636XXSP,2013-04-08 18:15:00,
2013-04-08 13:25:00,67.3,52.9,29.79,ESE,112,8.5,18.5,60,0.00,,,0.00,WUHU21636XXSP,2013-04-08 18:25:00,
2013-04-08 13:35:00,67.6,53.6,29.78,ESE,112,11.8,18.3,61,0.00,,,0.00,WUHU21636XXSP,2013-04-08 18:35:00,
2013-04-08 13:45:00,68.7,54.7,29.78,SSE,157,8.2,21.0,61,0.00,,,0.00,WUHU21636XXSP,2013-04-08 18:45:00,
2013-04-08 13:55:00,69.4,55.8,29.78,East,90,7.6,17.2,62,0.00,,,0.00,WUHU21636XXSP,2013-04-08 18:55:00,
2013-04-08 14:05:00,70.2,56.1,29.77,ESE,112,12.9,19.0,61,0.00,,,0.00,WUHU21636XXSP,2013-04-08 19:05:00,
2013-04-08 14:15:00,70.5,55.9,29.77,SE,135,10.9,23.0,60,0.00,,,0.00,WUHU21636XXSP,2013-04-08 19:15:00,
2013-04-08 14:25:00,70.3,55.8,29.78,SSE,157,10.7,24.3,60,0.00,,,0.00,WUHU21636XXSP,2013-04-08 19:25:00,
2013-04-08 14:35:00,69.6,55.9,29.78,ESE,112,13.4,21.2,62,0.00,,,0.00,WUHU21636XXSP,2013-04-08 19:35:00,
2013-04-08 14:45:00,69.4,56.7,29.78,SSE,157,15.4,22.3,64,0.00,,,0.00,WUHU21636XXSP,2013-04-08 19:45:00,
2013-04-08 14:55:00,69.4,56.1,29.77,East,90,9.8,27.7,63,0.00,,,0.00,WUHU21636XXSP,2013-04-08 19:55:00,
2013-04-08 15:05:00,69.1,55.9,29.78,SE,135,13.6,23.0,63,0.00,,,0.00,WUHU21636XXSP,2013-04-08 20:05:00,
2013-04-08 15:15:00,68.5,55.8,29.77,SE,135,10.5,22.5,64,0.00,,,0.00,WUHU21636XXSP,2013-04-08 20:15:00,
2013-04-08 15:25:00,68.5,55.8,29.77,ESE,112,13.4,22.1,64,0.00,,,0.00,WUHU21636XXSP,2013-04-08 20:25:00,
2013-04-08 15:35:00,67.5,55.6,29.77,SE,135,17.4,21.6,66,0.00,,,0.00,WUHU21636XXSP,2013-04-08 20:35:00,
2013-04-08 15:45:00,67.1,55.6,29.77,SSE,157,8.9,23.4,67,0.00,,,0.00,WUHU21636XXSP,2013-04-08 20:45:00,
2013-04-08 15:55:00,65.8,54.9,29.77,SE,135,17.6,24.3,68,0.00,,,0.00,WUHU21636XXSP,2013-04-08 20:55:00,
2013-04-08 16:05:00,64.9,54.9,29.77,SSE,157,9.6,23.9,70,0.00,,,0.00,WUHU21636XXSP,2013-04-08 21:05:00,
2013-04-08 16:15:00,64.6,54.5,29.76,SE,135,8.7,27.2,70,0.00,,,0.00,WUHU21636XXSP,2013-04-08 21:15:00,
2013-04-08 16:25:00,64.8,55.0,29.76,SE,135,6.7,20.1,71,0.00,,,0.00,WUHU21636XXSP,2013-04-08 21:25:00,
2013-04-08 16:35:00,64.2,54.7,29.75,SSE,157,12.9,22.5,71,0.00,,,0.00,WUHU21636XXSP,2013-04-08 21:35:00,
2013-04-08 16:45:00,64.6,54.9,29.75,SE,135,11.8,22.5,71,0.00,,,0.00,WUHU21636XXSP,2013-04-08 21:45:00,
2013-04-08 16:55:00,64.6,54.5,29.75,SE,135,11.1,19.6,70,0.00,,,0.00,WUHU21636XXSP,2013-04-08 21:55:00,
2013-04-08 17:05:00,64.9,54.9,29.75,SE,135,9.8,21.6,70,0.00,,,0.00,WUHU21636XXSP,2013-04-08 22:05:00,
2013-04-08 17:15:00,64.9,55.2,29.74,SE,135,8.0,19.6,71,0.00,,,0.00,WUHU21636XXSP,2013-04-08 22:15:00,
2013-04-08 17:25:00,65.5,55.8,29.72,SSE,157,14.7,21.6,71,0.00,,,0.00,WUHU21636XXSP,2013-04-08 22:25:00,
2013-04-08 17:35:00,65.8,56.1,29.72,SE,135,10.2,23.0,71,0.00,,,0.00,WUHU21636XXSP,2013-04-08 22:35:00,
2013-04-08 17:45:00,65.8,56.5,29.72,SE,135,8.9,21.0,72,0.00,,,0.00,WUHU21636XXSP,2013-04-08 22:45:00,
2013-04-08 17:55:00,66.4,56.7,29.71,ESE,112,11.6,24.1,71,0.00,,,0.00,WUHU21636XXSP,2013-04-08 22:55:00,
2013-04-08 18:06:00,66.6,56.5,29.70,East,90,8.5,20.5,70,0.00,,,0.00,WUHU21636XXSP,2013-04-08 23:06:00,
2013-04-08 18:16:00,66.4,55.8,29.70,SE,135,10.7,23.7,69,0.00,,,0.00,WUHU21636XXSP,2013-04-08 23:16:00,
2013-04-08 18:26:00,66.4,56.3,29.70,SE,135,12.3,25.5,70,0.00,,,0.00,WUHU21636XXSP,2013-04-08 23:26:00,
2013-04-08 18:36:00,66.0,56.3,29.71,ESE,112,12.3,22.5,71,0.00,,,0.00,WUHU21636XXSP,2013-04-08 23:36:00,
2013-04-08 18:46:00,65.5,56.1,29.71,ESE,112,10.5,25.7,72,0.00,,,0.00,WUHU21636XXSP,2013-04-08 23:46:00,
2013-04-08 18:56:00,65.1,56.1,29.70,ENE,67,13.1,22.5,73,0.00,,,0.00,WUHU21636XXSP,2013-04-08 23:56:00,
2013-04-08 19:06:00,64.8,56.5,29.71,ENE,67,9.6,22.3,75,0.00,,,0.00,WUHU21636XXSP,2013-04-09 00:06:00,
2013-04-08 19:16:00,64.2,56.5,29.71,ESE,112,8.7,17.8,76,0.00,,,0.00,WUHU21636XXSP,2013-04-09 00:16:00,
2013-04-08 19:26:00,64.0,56.7,29.72,NE,45,13.1,20.8,77,0.00,,,0.00,WUHU21636XXSP,2013-04-09 00:26:00,
2013-04-08 19:36:00,63.7,56.7,29.72,East,90,14.7,21.4,78,0.00,,,0.00,WUHU21636XXSP,2013-04-09 00:36:00,
2013-04-08 19:46:00,63.7,56.7,29.73,East,90,8.7,21.9,78,0.00,,,0.00,WUHU21636XXSP,2013-04-09 00:46:00,
2013-04-08 19:56:00,63.3,56.7,29.74,East,90,5.1,19.6,79,0.00,,,0.00,WUHU21636XXSP,2013-04-09 00:56:00,
2013-04-08 20:06:00,63.3,56.7,29.74,ESE,112,4.0,17.4,79,0.00,,,0.00,WUHU21636XXSP,2013-04-09 01:06:00,
2013-04-08 20:16:00,63.1,56.5,29.74,ENE,67,2.9,4.4,79,0.00,,,0.00,WUHU21636XXSP,2013-04-09 01:16:00,
2013-04-08 20:26:00,63.1,56.5,29.74,South,180,8.5,12.3,79,0.00,,,0.00,WUHU21636XXSP,2013-04-09 01:26:00,
2013-04-08 20:37:00,63.0,56.7,29.75,SE,135,6.4,18.5,80,0.00,,,0.00,WUHU21636XXSP,2013-04-09 01:37:00,
2013-04-08 20:47:00,62.8,56.5,29.74,ENE,67,8.5,19.4,80,0.00,,,0.00,WUHU21636XXSP,2013-04-09 01:47:00,
2013-04-08 20:57:00,62.4,56.3,29.74,ESE,112,16.1,25.2,81,0.00,,,0.00,WUHU21636XXSP,2013-04-09 01:57:00,
2013-04-08 21:07:00,62.4,56.3,29.73,SE,135,8.2,21.6,81,0.00,,,0.00,WUHU21636XXSP,2013-04-09 02:07:00,
2013-04-08 21:17:00,62.2,56.3,29.71,ENE,67,9.8,17.2,81,0.00,,,0.00,WUHU21636XXSP,2013-04-09 02:17:00,
2013-04-08 21:27:00,61.9,56.3,29.72,East,90,7.1,17.6,82,0.00,,,0.00,WUHU21636XXSP,2013-04-09 02:27:00,
2013-04-08 21:37:00,61.9,56.3,29.70,East,90,8.5,16.7,82,0.00,,,0.00,WUHU21636XXSP,2013-04-09 02:37:00,
2013-04-08 21:47:00,61.5,56.3,29.70,ESE,112,8.7,19.6,83,0.00,,,0.00,WUHU21636XXSP,2013-04-09 02:47:00,
2013-04-08 21:57:00,61.5,56.3,29.70,ENE,67,10.5,16.5,83,0.00,,,0.00,WUHU21636XXSP,2013-04-09 02:57:00,
2013-04-08 22:07:00,61.3,55.8,29.70,East,90,7.1,15.8,82,0.00,,,0.00,WUHU21636XXSP,2013-04-09 03:07:00,
2013-04-08 22:17:00,61.3,56.1,29.71,NE,45,8.2,19.4,83,0.00,,,0.00,WUHU21636XXSP,2013-04-09 03:17:00,
2013-04-08 22:27:00,59.0,50.7,29.72,NE,45,10.0,31.3,74,0.00,,,0.00,WUHU21636XXSP,2013-04-09 03:27:00,
2013-04-08 22:37:00,57.4,50.5,29.70,ENE,67,15.8,28.1,78,0.00,,,0.00,WUHU21636XXSP,2013-04-09 03:37:00,
2013-04-08 22:47:00,57.4,51.4,29.68,ENE,67,16.5,29.3,81,0.00,,,0.00,WUHU21636XXSP,2013-04-09 03:47:00,
2013-04-08 22:57:00,56.8,48.2,29.69,ENE,67,13.4,36.4,73,0.00,,,0.00,WUHU21636XXSP,2013-04-09 03:57:00,
2013-04-08 23:07:00,55.0,46.8,29.66,NE,45,22.1,38.4,74,0.00,,,0.00,WUHU21636XXSP,2013-04-09 04:07:00,
2013-04-08 23:17:00,53.8,45.5,29.62,East,90,22.5,44.7,74,0.00,,,0.00,WUHU21636XXSP,2013-04-09 04:17:00,
2013-04-08 23:27:00,52.5,44.8,29.58,NE,45,26.8,43.6,75,0.00,,,0.00,WUHU21636XXSP,2013-04-09 04:27:00,
2013-04-08 23:37:00,52.0,44.6,29.74,WNW,292,14.5,40.4,76,0.00,,,0.00,WUHU21636XXSP,2013-04-09 04:37:00,
2013-04-08 23:47:00,52.0,46.0,29.74,North,0,12.5,27.2,80,0.00,,,0.00,WUHU21636XXSP,2013-04-09 04:47:00,
2013-04-08 23:57:00,50.5,46.0,29.67,SSE,157,0.6,24.3,85,0.06,,,0.06,WUHU21636XXSP,2013-04-09 04:57:00,